Tracking 20719 objects as of 24-May-2020
HD Live streaming from Space Station
objects crossing your sky now

SL-8 DEB

Track SL-8 DEB now!
10-day predictions


NORAD ID: 11114
Int'l Code: 1978-105D
Perigee: 645.1 km
Apogee: 654.0 km
Inclination: 74.0 °
Period: 97.6 minutes
Semi major axis: 7020 km
RCS: 0.0186 m2 (small)
Launch date: November 16, 1978
Source: Commonwealth of Independent States (former USSR) (CIS)
Launch site: PLESETSK MISSILE AND SPACE COMPLEX (PKMTR)

Note: This is SATELLITE DEBRIS
aabbcc
Your satellite tracking list
Your tracking list is empty




NASA's NSSDC Master Catalog

Two Line Element Set (TLE):
1 11114U 78105D   20144.29904654 +.00000300 +00000-0 +48742-4 0  9991
2 11114 074.0127 252.4182 0006361 343.9381 016.1590 14.75853834199966
Source of the keplerian elements: AFSPC